Regional Weather Roundup
Issued by NWS State College, PA

Home | Current Version | Previous Version | Graphics & Text | Print | Product List | Glossary On
Versions: 1 2 3 4 5 6 7 8 9 10 11 12 13 14 15 16 17 18 19 20 21 22 23 24 25 26 27 28 29 30 31 32 33 34 35 36 37 38 39 40 41 42 43 44 45 46 47 48 49 50
000
ASUS41 KCTP 051103
RWRCTP

REGIONAL WEATHER ROUNDUP
NATIONAL WEATHER SERVICE STATE COLLEGE PA
700 AM EDT SUN JUL 05 2015

Note: "fair" indicates few or no clouds below 12,000 feet with no
significant weather and/or obstructions to visibility.

* = STATION THAT DOES NOT REPORT PRECIPITATION /E.G. RAIN...SNOW...ETC/
    THUNDER OR FOG.

PAZ002>004-007>009-013>016-020>023-029>032-051200-
WESTERN PENNSYLVANIA

CITY           SKY/WX    TMP DP  RH WIND       PRES   REMARKS
ERIE           SUNNY     59  52  77 S5        30.13R
MEADVILLE      SUNNY     56  51  84 S3        30.15R HAZE
FRANKLIN*      SUNNY     52  48  87 CALM      30.17R
NEW CASTLE     FAIR      53  53 100 CALM      30.16R
BEAVER COUNTY  NOT AVBL
BUTLER*        PTSUNNY   54  52  94 NE5       30.17R
PITTSBURGH INT CLOUDY    59  55  87 CALM      30.14R
PITTSBURGH     PTSUNNY   61  53  75 CALM      30.14R HAZE
INDIANA*       SUNNY     55  55 100 CALM      30.19R
LATROBE        SUNNY     55  55 100 CALM      30.15R FOG
WASHINGTON CO* NOT AVBL
$$

PAZ004>006-010>012-017>019-024>028-033>037-041-042-045-046-049>053-051200-
CENTRAL PENNSYLVANIA

CITY           SKY/WX    TMP DP  RH WIND       PRES   REMARKS
BRADFORD       SUNNY     47  45  93 E3        30.17R
DUBOIS         PTSUNNY   55  51  86 CALM      30.16R
CLEARFIELD     FOG       58  57  97 CALM      30.17R VSB 1/4
JOHNSTOWN      PTSUNNY   59  55  87 SW6       30.17R
ALTOONA        FOG       60  59  96 CALM      30.16R VSB<1/4
STATE COLLEGE  CLOUDY    64  63  94 CALM      30.15R FOG
WILLIAMSPORT   CLOUDY    63  61  93 N5        30.12R FOG
SELINSGROVE    FOG       62  62 100 CALM      30.14R VSB 1/4
FT INDIANTOWN  MOSUNNY   60  60 100 S2        30.12R FOG
CAPITAL CITY   FOG       63  62  97 CALM      30.13R VSB<1/4
HARRISBURG     FOG       63  62  97 NW5       30.12R VSB 1/16
YORK           CLOUDY    64  64 100 CALM      30.13R FOG
$$

PAZ038>040-043-044-047-048-054-055-060>062-067>071-051200-
EASTERN PENNSYLVANIA

CITY           SKY/WX    TMP DP  RH WIND       PRES   REMARKS
SCRANTON       CLOUDY    63  60  90 SW5       30.12R FOG
MOUNT POCONO   CLOUDY    60  58  92 NW8       30.13R FOG
ALLENTOWN      MOSUNNY   63  61  93 CALM      30.11R FOG
QUAKERTOWN*    MOSUNNY   61  61 100 CALM      30.12R
READING        FOG       63  61  93 CALM      30.11R VSB 1/4
LANCASTER      MOSUNNY   63  62  97 W3        30.12R FOG
COATESVILLE    MOSUNNY   64  64 100 CALM      30.13R FOG
POTTSTOWN      FOG       64  64 100 CALM      30.13R VSB<1/4
BLUE BELL        N/A     66  64  94 CALM      30.10R
DOYLESTOWN     SUNNY     64  62  93 CALM      30.10R
WILLOW GROVE   NOT AVBL
NORTH PHILA    MOSUNNY   66  59  78 CALM      30.11R
PHILADELPHIA   PTSUNNY   69  61  75 CALM      30.11R
$$



USA.gov is the U.S. government's official web portal to all federal, state and local government web resources and services.